Weather History for KBKF - May, 2013

Change the Weather History Date:

Sunday, May 19, 2013

  Actual Average Record
Temperature  
Mean Temperature 57 °F -  
Max Temperature 68 °F 69 °F 84 °F (2006)
Min Temperature 46 °F 43 °F 39 °F (1997)
Degree Days  
Heating Degree Days 8    
Growing Degree Days 7 (Base 50)    
Moisture  
Dew Point 34 °F    
Average Humidity 48    
Maximum Humidity 71    
Minimum Humidity 21    
Precipitation  
Precipitation 0.01 in - - ()
Sea Level Pressure  
Sea Level Pressure 29.70 in    
Wind  
Wind Speed 8 mph (SSW)    
Max Wind Speed 33 mph    
Max Gust Speed 47 mph    
Visibility 10 miles    
Events Thunderstorm    
Averages and records for this station are not official NWS values.
T = Trace of Precipitation, MM = Missing Value Source: NWS Daily Summary

Daily Weather History Graph

Daily Weather History Graph

Search for Another Location

Airport or City:

Trip Planner

Search our weather history database for the weather conditions in past years. The results will help you decide how hot, cold, wet, or windy it might be!

Date:

Astronomy

May. 19, 2013 Rise Set
Actual Time 5:40 AM MDT 8:10 PM MDT
Civil Twilight 5:09 AM MDT 8:41 PM MDT
Nautical Twilight 4:31 AM MDT 9:20 PM MDT
Astronomical Twilight 3:49 AM MDT 10:03 PM MDT
Moon 2:18 PM MDT (5/19) 2:04 AM MDT (5/19)
Length of Visible Light 15h 31m
Length of Day
14h 29m
Waxing Gibbous, 66% of the Moon is Illuminated
May 19
Waxing Gibbous
May 24
Full
May 31
Last Quarter
Jun 8
New
Jun 16
First Quarter

Hourly Weather History & Observations

Time (MDT) Temp. Windchill Dew Point Humidity Pressure Visibility Wind Dir Wind Speed Gust Speed Precip Events Conditions
12:55 AM 48.2 °F - 39.2 °F 71% 29.71 in 10.0 mi South 5.8 mph - N/A   Scattered Clouds
1:55 AM 46.4 °F 42.9 °F 37.4 °F 71% 29.72 in 10.0 mi South 6.9 mph - N/A   Scattered Clouds
2:55 AM 48.2 °F - 39.2 °F 71% 29.71 in 10.0 mi South 10.4 mph - N/A   Mostly Cloudy
3:55 AM 50.0 °F - 37.4 °F 62% 29.70 in 10.0 mi South 6.9 mph - N/A   Overcast
4:55 AM 51.8 °F - 37.4 °F 58% 29.68 in 10.0 mi SSW 5.8 mph - N/A   Mostly Cloudy
5:55 AM 48.2 °F - 37.4 °F 66% 29.70 in 70.0 mi SE 5.8 mph - N/A   Mostly Cloudy
6:55 AM 51.8 °F - 39.2 °F 62% 29.71 in 70.0 mi South 3.5 mph - N/A   Mostly Cloudy
7:55 AM 53.6 °F - 35.6 °F 51% 29.70 in 70.0 mi WSW 6.9 mph - N/A   Mostly Cloudy
8:55 AM 57.2 °F - 35.6 °F 44% 29.70 in 70.0 mi WSW 5.8 mph - N/A   Mostly Cloudy
9:55 AM 60.8 °F - 28.4 °F 29% 29.68 in 70.0 mi NW 3.5 mph - N/A   Mostly Cloudy
10:55 AM 62.6 °F - 28.4 °F 27% 29.68 in 70.0 mi SE 3.5 mph - N/A   Mostly Cloudy
11:55 AM 62.6 °F - 26.6 °F 26% 29.66 in 25.0 mi ENE 3.5 mph - N/A   Mostly Cloudy
12:55 PM 66.2 °F - 28.4 °F 24% 29.64 in 25.0 mi NW 3.5 mph - N/A   Mostly Cloudy
1:55 PM 66.2 °F - 24.8 °F 21% 29.63 in 25.0 mi West 16.1 mph 26.5 mph N/A   Mostly Cloudy
2:55 PM 68.0 °F - 28.4 °F 23% 29.62 in 25.0 mi NNW 13.8 mph 20.7 mph N/A   Mostly Cloudy
3:55 PM 68.0 °F - 28.4 °F 23% 29.62 in 25.0 mi NNW 15.0 mph - N/A   Mostly Cloudy
4:55 PM 62.6 °F - 30.2 °F 30% 29.65 in 25.0 mi WNW 13.8 mph 23.0 mph N/A   Mostly Cloudy
5:14 PM 59.0 °F - 35.6 °F 42% 29.82 in 25.0 mi West 33.4 mph 47.2 mph N/A Thunderstorm Mostly Cloudy
5:36 PM 57.2 °F - 32.0 °F 38% 29.81 in 25.0 mi North 11.5 mph - N/A   Mostly Cloudy
5:55 PM 62.6 °F - 30.2 °F 30% 29.67 in 25.0 mi NNE 8.1 mph - N/A   Scattered Clouds
6:55 PM 57.2 °F - 39.2 °F 51% 29.69 in 25.0 mi ESE 11.5 mph - N/A   Mostly Cloudy
7:55 PM 51.8 °F - 39.2 °F 62% 29.73 in 25.0 mi ESE 10.4 mph - N/A   Mostly Cloudy
8:55 PM 50.0 °F - 39.2 °F 66% 29.74 in 25.0 mi SSE 11.5 mph - N/A   Scattered Clouds
9:55 PM 50.0 °F - 37.4 °F 62% 29.75 in 25.0 mi South 6.9 mph - N/A   Mostly Cloudy
10:55 PM 50.0 °F - 37.4 °F 62% 29.75 in 25.0 mi South 5.8 mph - N/A   Mostly Cloudy
11:55 PM 48.2 °F - 37.4 °F 66% 29.75 in 25.0 mi South 9.2 mph - N/A   Mostly Cloudy